Flag for South Africa Weather past 2 weeks in Rustenburg, South Africa

Now
77 °F

Passing clouds.


Feels Like: 78 °F
Forecast: 53 / 77 °F
Wind: 6 mph from North

Location: Lanseria Civ / Mil


UV Index: 5 (Moderate)

Visibility: N/A


Pressure: 30.21 "Hg

Humidity: 34%

Dew point: 46 °F

Location of RustenburgLocation

Historic Weather in Rustenburg

°F

Rustenburg temperature yesterday

Maximum temperature yesterday: 79 °F (at 2:00 PM)
Minimum temperature yesterday: 48 °F (at 7:00 AM)
Average temperature yesterday: 63 °F

Past Weeks' High & Low Weather Summary

 TemperatureHumidityPressure
High79 °F (Apr 19, 1:00 PM)100% (Apr 11, 7:00 AM)30.51 "Hg (Apr 11, 7:00 AM)
Low45 °F (Apr 18, 6:00 AM)25% (Apr 7, 5:00 PM)30.12 "Hg (Apr 15, 3:00 PM)
Average62 °F68%30.35 "Hg
* Reported Apr 6 10:00 AM — Apr 21 10:00 AM, Rustenburg, Weather by CustomWeather, © 2014

Note: Actual official high and low records may vary slightly from our data, if they occured in-between our weather recording intervals... More about our weather records

Advertising

Historic Weather Conditions — Data for Previous 24 hours

 ConditionsComfort  
Time TempWeatherWind HumidityBarometerVisibility
10:00 AM
Apr 21
70 °FPassing clouds.5 mph50%30.27 "HgN/A
9:00 AM64 °FSunny.2 mph60%30.27 "Hg10 mi
6:00 AM52 °FSunny.2 mph88%30.24 "Hg10 mi
5:00 AM52 °FCool.No wind82%30.24 "HgN/A
4:00 AM54 °FCool.No wind77%30.24 "HgN/A
3:00 AM54 °FCool.No wind82%30.24 "HgN/A
2:00 AM54 °FCool.3 mph82%30.27 "HgN/A
1:00 AM55 °FCool.No wind77%30.27 "HgN/A
12:00 AM57 °FCool.No wind72%30.27 "HgN/A
11:00 PM
Apr 20
61 °FCool.No wind63%30.30 "HgN/A
10:00 PM57 °FClear.7 mph72%30.30 "Hg10 mi
9:00 PM64 °FPassing clouds.5 mph52%30.30 "HgN/A
8:00 PM64 °FClear.5 mph52%30.30 "Hg10 mi
7:00 PM66 °FClear.6 mph49%30.27 "Hg10 mi
6:00 PM70 °FClear.6 mph43%30.27 "Hg10 mi
5:00 PM73 °FClear.9 mph36%30.27 "Hg10 mi
4:00 PM77 °FPassing clouds.7 mph30%30.27 "HgN/A
3:00 PM77 °FPassing clouds.7 mph32%30.27 "HgN/A
2:00 PM79 °FPassing clouds.7 mph28%30.30 "HgN/A
1:00 PM77 °FPassing clouds.3 mph32%30.33 "HgN/A
12:00 PM77 °FPassing clouds.7 mph34%30.36 "HgN/A
Weather by CustomWeather, © 2014

See weather overview